Location: Arpaise
(41.0333°N, 14.7333°E)
Time: 06:27:32
(UTC+00:00)

Cosmos 1538 Rocket - Pass Details

Date: 05 July 2020
Orbit: 753 x 791 km, 74.0° (Epoch: 05 August)

Event Time Altitude Azimuth Distance (km) Brightness Sun altitude
Exits shadow 20:35:02 18° 190° (S) 1,871 5.6 -17.3°
Maximum altitude 20:39:06 75° 107° (ESE) 818 4.0 -17.8°
Drops below altitude 10° 20:44:25 10° 23° (NNE) 2,346 6.9 -18.3°
Sets 20:46:49 0° 22° (NNE) 3,272 7.8 -18.6°
